2021-088C (49262 NORAD) Tracking and Keplerian Element Data

This shows tracking and keplerian element data for the satellite.

Feedback or suggestion? Click here.




ElementValue
Catalog49262
Name2021-088C
Epoch Orbit256
Epoch Day287.94300086
Epoch Year2021
RAAN355.64
Inclination97.6237
Eccentricity0.0022049
Argument of Perigee191.8178
Mean Anonmoly168.2592
Mean Motion15.00548971
Decay Rate2.028E-05
L11 49262U 21088C 21287.94300086 .00002028 00000-0 16475-3 0 9990
L22 49262 97.6237 355.6400 0022049 191.8178 168.2592 15.00548971 2560

Live tracking and technical data element details for 2021-088C (NORAD 49262). 2021-088C can be tracked NOW for your location showing map with azimuth and elevation plus other details from your city location.

Track the satellite on the map from your city or location and see movement details for azimuth, elevation, latitude, longitude, range, height, and movement on the map or in text.







IsCatalogInMostPopularTable: catalog: 49262, numindb: 7
Update: records affected: 1



GetName: 49262 2021-088C

Hit Count: updated at: Tue, 19 Oct 2021 08:25:42 GMT